,,Stat5,,Stat1,,Stat2,,Stat3,,Stat4,,Wind1,,Wind1,
time,status,PA1M_AVG,status,PR1M_SUM,status,RH1M_AVG,status,SR1M_AVG,status,TA1M_AVG,status,W1dAve1m,status,W1sAve1m,
2001-01-28, 00:00:01,VALID,916.978,VALID,0,VALID,98.894,VALID,0,VALID,19.2882,VALID,322,VALID,0.788672,
2001-01-28, 00:01:00,VALID,917.025,VALID,0,VALID,98.927,VALID,0,VALID,19.3106,VALID,104,VALID,0.575521,
2001-01-28, 00:02:00,VALID,917.051,VALID,0,VALID,98.9346,VALID,0,VALID,19.32,VALID,101,VALID,1.11406,
2001-01-28, 00:03:00,VALID,917.037,VALID,0,VALID,98.9143,VALID,0,VALID,19.3106,VALID,329,VALID,0.517187,
2001-01-28, 00:04:00,VALID,917.024,VALID,0,VALID,98.9245,VALID,-0.0169808,VALID,19.3205,VALID,102,VALID,0.697516,
2001-01-28, 00:05:00,VALID,917.044,VALID,0,VALID,98.9041,VALID,-0.0169808,VALID,19.2877,VALID,335,VALID,1.05786,
2001-01-28, 00:06:00,VALID,917.014,VALID,0,VALID,98.9029,VALID,0,VALID,19.2815,VALID,77,VALID,1.22572,
2001-01-28, 00:07:00,VALID,917.007,VALID,0,VALID,98.9105,VALID,-0.0169808,VALID,19.2783,VALID,155,VALID,0.691501,
2001-01-28, 00:08:00,VALID,916.994,VALID,0,VALID,98.9105,VALID,-0.0169808,VALID,19.2817,VALID,110,VALID,0.152444,
2001-01-28, 00:09:00,VALID,916.986,VALID,0,VALID,98.9118,VALID,0,VALID,19.275,VALID,241,VALID,0.611178,
2001-01-28, 00:10:00,VALID,916.965,VALID,0,VALID,98.9029,VALID,-0.0339617,VALID,19.2755,VALID,9,VALID,1.05134,
2001-01-28, 00:11:00,VALID,916.939,VALID,0.2,VALID,98.9168,VALID,-0.0169808,VALID,19.2723,VALID,26,VALID,1.51094,
2001-01-28, 00:12:00,VALID,916.88,VALID,0,VALID,98.8863,VALID,0,VALID,19.2271,VALID,317,VALID,1.56895,
2001-01-28, 00:13:00,VALID,916.869,VALID,0,VALID,98.8749,VALID,-0.0169808,VALID,19.2077,VALID,321,VALID,1.14277,
2001-01-28, 00:14:00,VALID,916.865,VALID,0,VALID,98.894,VALID,-0.0679233,VALID,19.198,VALID,321,VALID,0.5644,
2001-01-28, 00:15:00,VALID,916.833,VALID,0,VALID,98.9537,VALID,0,VALID,19.2328,VALID,64,VALID,0.727648,
2001-01-28, 00:16:00,VALID,916.838,VALID,0,VALID,98.9372,VALID,0.0169808,VALID,19.239,VALID,288,VALID,1.04286,
2001-01-28, 00:17:00,VALID,916.834,VALID,0,VALID,98.9397,VALID,0,VALID,19.2197,VALID,5,VALID,1.27217,
2001-01-28, 00:18:00,VALID,916.863,VALID,0,VALID,98.9308,VALID,0,VALID,19.1873,VALID,329,VALID,1.03167,
2001-01-28, 00:19:00,VALID,916.864,VALID,0,VALID,98.9372,VALID,0,VALID,19.1913,VALID,290,VALID,0.79387,
2001-01-28, 00:20:00,VALID,916.842,VALID,0,VALID,98.9703,VALID,0,VALID,19.1846,VALID,24,VALID,0.896835,
2001-01-28, 00:21:00,VALID,916.837,VALID,0,VALID,98.9792,VALID,-0.0169808,VALID,19.2042,VALID,78,VALID,1.14554,
2001-01-28, 00:22:00,VALID,916.813,VALID,0,VALID,98.9741,VALID,0,VALID,19.2005,VALID,13,VALID,0.978413,
2001-01-28, 00:23:00,VALID,916.819,VALID,0,VALID,98.9817,VALID,0,VALID,19.1881,VALID,312,VALID,0.804087,
2001-01-28, 00:24:00,VALID,916.818,VALID,0,VALID,99.002,VALID,-0.0169808,VALID,19.2012,VALID,311,VALID,0.64082,
2001-01-28, 00:25:00,VALID,916.81,VALID,0,VALID,99.0173,VALID,-0.0169808,VALID,19.2075,VALID,344,VALID,0.499367,
2001-01-28, 00:26:00,VALID,916.809,VALID,0,VALID,99.044,VALID,-0.0339617,VALID,19.2402,VALID,69,VALID,0.374155,
2001-01-28, 00:27:00,VALID,916.821,VALID,0,VALID,99.0567,VALID,0,VALID,19.2333,VALID,333,VALID,0.592665,
2001-01-28, 00:28:00,VALID,916.822,VALID,0,VALID,99.0415,VALID,-0.0169808,VALID,19.1975,VALID,303,VALID,0.669922,
2001-01-28, 00:29:00,VALID,916.792,VALID,0,VALID,99.0287,VALID,-0.0509425,VALID,19.1814,VALID,303,VALID,0.562109,
2001-01-28, 00:30:00,VALID,916.788,VALID,0,VALID,99.0504,VALID,0,VALID,19.1846,VALID,267,VALID,0.309896,
2001-01-28, 00:31:00,VALID,916.792,VALID,0,VALID,99.0631,VALID,0,VALID,19.1945,VALID,290,VALID,0.930088,
2001-01-28, 00:32:00,VALID,916.785,VALID,0,VALID,99.0593,VALID,-0.0169808,VALID,19.1816,VALID,300,VALID,0.538616,
2001-01-28, 00:33:00,VALID,916.778,VALID,0,VALID,99.0898,VALID,-0.0339617,VALID,19.2045,VALID,354,VALID,0.265425,
2001-01-28, 00:34:00,VALID,916.791,VALID,0,VALID,99.1025,VALID,0,VALID,19.24,VALID,339,VALID,0.25699,
2001-01-28, 00:35:00,VALID,916.796,VALID,0,VALID,99.1076,VALID,-0.0509425,VALID,19.2303,VALID,311,VALID,0.528372,
2001-01-28, 00:36:00,VALID,916.793,VALID,0,VALID,99.0961,VALID,-0.0339617,VALID,19.2008,VALID,49,VALID,0.53559,
2001-01-28, 00:37:00,VALID,916.806,VALID,0,VALID,99.1216,VALID,-0.0169808,VALID,19.2139,VALID,61,VALID,0.39388,
2001-01-28, 00:38:00,VALID,916.804,VALID,0,VALID,99.1292,VALID,-0.0339617,VALID,19.2308,VALID,109,VALID,0.111213,
2001-01-28, 00:39:00,VALID,916.805,VALID,0,VALID,99.1343,VALID,-0.0169808,VALID,19.2271,VALID,150,VALID,0,
2001-01-28, 00:40:00,VALID,916.802,VALID,0,VALID,99.1457,VALID,-0.0339617,VALID,19.2331,VALID,106,VALID,0.117188,
2001-01-28, 00:41:00,VALID,916.813,VALID,0,VALID,99.1559,VALID,-0.0339617,VALID,19.2527,VALID,114,VALID,0.869191,
2001-01-28, 00:42:00,VALID,916.796,VALID,0,VALID,99.1623,VALID,-0.0169808,VALID,19.2562,VALID,90,VALID,0.691907,
2001-01-28, 00:43:00,VALID,916.808,VALID,0,VALID,99.1534,VALID,0,VALID,19.2624,VALID,96,VALID,0.365402,
2001-01-28, 00:44:00,VALID,916.81,VALID,0,VALID,99.1445,VALID,0,VALID,19.2529,VALID,189,VALID,0.227148,
2001-01-28, 00:45:00,VALID,916.803,VALID,0,VALID,99.1534,VALID,-0.0339617,VALID,19.2492,VALID,225,VALID,0.00292969,
2001-01-28, 00:46:00,VALID,916.804,VALID,0,VALID,99.1546,VALID,0,VALID,19.2425,VALID,165,VALID,0.0560547,
2001-01-28, 00:47:00,VALID,916.796,VALID,0,VALID,99.175,VALID,-0.0339617,VALID,19.2559,VALID,107,VALID,0.834037,
2001-01-28, 00:48:00,VALID,916.777,VALID,0,VALID,99.1839,VALID,0,VALID,19.2885,VALID,94,VALID,0.42947,
2001-01-28, 00:49:00,VALID,916.783,VALID,0,VALID,99.203,VALID,0,VALID,19.3041,VALID,118,VALID,0.107366,
2001-01-28, 00:50:00,VALID,916.77,VALID,0,VALID,99.1813,VALID,-0.0169808,VALID,19.2944,VALID,178,VALID,0.246199,
2001-01-28, 00:51:00,VALID,916.755,VALID,0,VALID,99.189,VALID,0,VALID,19.278,VALID,262,VALID,0.132813,
2001-01-28, 00:52:00,VALID,916.725,VALID,0,VALID,99.1979,VALID,-0.0679233,VALID,19.2716,VALID,126,VALID,0.323918,
2001-01-28, 00:53:00,VALID,916.689,VALID,0,VALID,99.1953,VALID,-0.0849042,VALID,19.2785,VALID,87,VALID,0.123798,
2001-01-28, 00:54:00,VALID,916.642,VALID,0,VALID,99.1813,VALID,-0.0849042,VALID,19.2559,VALID,76,VALID,0.0839286,
2001-01-28, 00:55:00,VALID,916.622,VALID,0,VALID,99.1941,VALID,-0.0679233,VALID,19.2696,VALID,93,VALID,0.00411184,
2001-01-28, 00:56:00,VALID,916.595,VALID,0,VALID,99.2042,VALID,-0.101885,VALID,19.2716,VALID,112,VALID,0.211939,
2001-01-28, 00:57:00,VALID,916.581,VALID,0,VALID,99.2157,VALID,-0.0679233,VALID,19.2947,VALID,308,VALID,0.268164,
2001-01-28, 00:58:00,VALID,916.574,VALID,0,VALID,99.1877,VALID,-0.0849042,VALID,19.2785,VALID,306,VALID,0.400127,
2001-01-28, 00:59:00,VALID,916.554,VALID,0,VALID,99.2119,VALID,-0.0849042,VALID,19.2718,VALID,77,VALID,0.440245,
2001-01-28, 01:00:00,VALID,916.547,VALID,0,VALID,99.2119,VALID,-0.0849042,VALID,19.3014,VALID,100,VALID,1.09874,
2001-01-28, 01:01:00,VALID,916.544,VALID,0,VALID,99.222,VALID,-0.101885,VALID,19.3141,VALID,133,VALID,0.299023,
2001-01-28, 01:02:00,VALID,916.524,VALID,0,VALID,99.2182,VALID,-0.0849042,VALID,19.3143,VALID,56,VALID,0.160938,
2001-01-28, 01:03:00,VALID,916.512,VALID,0,VALID,99.2068,VALID,-0.101885,VALID,19.2882,VALID,134,VALID,0.376002,
2001-01-28, 01:04:00,VALID,916.504,VALID,0,VALID,99.2106,VALID,-0.0849042,VALID,19.2912,VALID,126,VALID,0.243389,
2001-01-28, 01:05:00,VALID,916.495,VALID,0,VALID,99.2157,VALID,-0.101885,VALID,19.2917,VALID,117,VALID,0.242188,
2001-01-28, 01:06:00,VALID,916.484,VALID,0,VALID,99.2157,VALID,-0.0849042,VALID,19.2686,VALID,106,VALID,0.0588942,
2001-01-28, 01:07:00,VALID,916.476,VALID,0,VALID,99.2055,VALID,0,VALID,19.2639,VALID,109,VALID,0,
2001-01-28, 01:08:00,VALID,916.478,VALID,0,VALID,99.2195,VALID,0.0169808,VALID,19.2674,VALID,110,VALID,0.0583882,
2001-01-28, 01:09:00,VALID,916.488,VALID,0,VALID,99.208,VALID,0.0169808,VALID,19.2545,VALID,151,VALID,0,
2001-01-28, 01:10:00,VALID,916.479,VALID,0,VALID,99.2208,VALID,0.0169808,VALID,19.2674,VALID,151,VALID,0,
2001-01-28, 01:11:00,VALID,916.495,VALID,0,VALID,99.2246,VALID,0.0169808,VALID,19.2639,VALID,151,VALID,0,
2001-01-28, 01:12:00,VALID,916.498,VALID,0,VALID,99.2157,VALID,0.0169808,VALID,19.2609,VALID,155,VALID,0,
2001-01-28, 01:13:00,VALID,916.502,VALID,0,VALID,99.2208,VALID,0.0339617,VALID,19.2771,VALID,174,VALID,0,
2001-01-28, 01:14:00,VALID,916.502,VALID,0,VALID,99.222,VALID,0.0169808,VALID,19.2741,VALID,174,VALID,0,
2001-01-28, 01:15:00,VALID,916.502,VALID,0,VALID,99.2233,VALID,0.0339617,VALID,19.2736,VALID,174,VALID,0,
2001-01-28, 01:16:00,VALID,916.495,VALID,0.2,VALID,99.2131,VALID,0.0169808,VALID,19.2574,VALID,175,VALID,0.106696,
2001-01-28, 01:17:00,VALID,916.474,VALID,0,VALID,99.2386,VALID,0,VALID,19.2704,VALID,99,VALID,0.818555,
2001-01-28, 01:18:00,VALID,916.458,VALID,0,VALID,99.2347,VALID,0.0339617,VALID,19.257,VALID,99,VALID,0.973242,
2001-01-28, 01:19:00,VALID,916.441,VALID,0,VALID,99.1877,VALID,0.0679233,VALID,19.2187,VALID,126,VALID,0.442383,
2001-01-28, 01:20:00,VALID,916.416,VALID,0,VALID,99.1813,VALID,0.0679233,VALID,19.1799,VALID,99,VALID,0.771537,
2001-01-28, 01:21:00,VALID,916.382,VALID,0,VALID,99.2106,VALID,0.0509425,VALID,19.1993,VALID,329,VALID,0.283637,
2001-01-28, 01:22:00,VALID,916.378,VALID,0,VALID,99.2144,VALID,0.0509425,VALID,19.1993,VALID,77,VALID,0.622768,
2001-01-28, 01:23:00,VALID,916.365,VALID,0,VALID,99.2258,VALID,0.0169808,VALID,19.2189,VALID,106,VALID,0.986698,
2001-01-28, 01:24:00,VALID,916.344,VALID,0,VALID,99.2297,VALID,0,VALID,19.2289,VALID,101,VALID,1.21178,
2001-01-28, 01:25:00,VALID,916.351,VALID,0,VALID,99.2386,VALID,0.0169808,VALID,19.2251,VALID,105,VALID,0.976362,
2001-01-28, 01:26:00,VALID,916.358,VALID,0,VALID,99.2411,VALID,0.0169808,VALID,19.2289,VALID,98,VALID,1.39443,
2001-01-28, 01:27:00,VALID,916.361,VALID,0,VALID,99.2411,VALID,0.0169808,VALID,19.2222,VALID,74,VALID,1.26272,
2001-01-28, 01:28:00,VALID,916.369,VALID,0,VALID,99.1941,VALID,0,VALID,19.1578,VALID,51,VALID,1.86184,
2001-01-28, 01:29:00,VALID,916.347,VALID,0,VALID,99.2004,VALID,0,VALID,19.1285,VALID,62,VALID,1.14263,
2001-01-28, 01:30:00,VALID,916.34,VALID,0,VALID,99.203,VALID,0.0169808,VALID,19.1188,VALID,73,VALID,1.2748,
2001-01-28, 01:31:00,VALID,916.362,VALID,0,VALID,99.2258,VALID,0.0169808,VALID,19.1347,VALID,80,VALID,0.991765,
2001-01-28, 01:32:00,VALID,916.339,VALID,0,VALID,99.2347,VALID,0,VALID,19.1225,VALID,51,VALID,0.814189,
2001-01-28, 01:33:00,VALID,916.343,VALID,0,VALID,99.2437,VALID,0.0339617,VALID,19.1223,VALID,62,VALID,0.60395,
2001-01-28, 01:34:00,VALID,916.342,VALID,0,VALID,99.2602,VALID,0.0169808,VALID,19.1513,VALID,81,VALID,0.749609,
2001-01-28, 01:35:00,VALID,916.336,VALID,0,VALID,99.2538,VALID,0.0679233,VALID,19.1347,VALID,67,VALID,0.819727,
2001-01-28, 01:36:00,VALID,916.332,VALID,0,VALID,99.2576,VALID,0,VALID,19.1126,VALID,62,VALID,0.937901,
2001-01-28, 01:37:00,VALID,916.322,VALID,0,VALID,99.2564,VALID,0.0339617,VALID,19.0992,VALID,67,VALID,1.11498,
2001-01-28, 01:38:00,VALID,916.312,VALID,0,VALID,99.2589,VALID,0.0169808,VALID,19.1056,VALID,81,VALID,1.35201,
2001-01-28, 01:39:00,VALID,916.322,VALID,0,VALID,99.2742,VALID,0.0169808,VALID,19.0992,VALID,70,VALID,0.939103,
2001-01-28, 01:40:00,VALID,916.309,VALID,0,VALID,99.2665,VALID,0.0169808,VALID,19.0863,VALID,52,VALID,0.834087,
2001-01-28, 01:41:00,VALID,916.3,VALID,0,VALID,99.264,VALID,0.0169808,VALID,19.0867,VALID,57,VALID,0.564762,
2001-01-28, 01:42:00,VALID,916.297,VALID,0,VALID,99.2729,VALID,0.0339617,VALID,19.0992,VALID,74,VALID,0.599826,
2001-01-28, 01:43:00,VALID,916.296,VALID,0,VALID,99.3009,VALID,0.0509425,VALID,19.1253,VALID,87,VALID,1.01823,
2001-01-28, 01:44:00,VALID,916.299,VALID,0,VALID,99.2971,VALID,0,VALID,19.1188,VALID,72,VALID,0.957491,
2001-01-28, 01:45:00,VALID,916.303,VALID,0,VALID,99.2958,VALID,0,VALID,19.1253,VALID,91,VALID,1.38767,
2001-01-28, 01:46:00,VALID,916.286,VALID,0,VALID,99.3072,VALID,0.0339617,VALID,19.1416,VALID,78,VALID,1.54067,
2001-01-28, 01:47:00,VALID,916.256,VALID,0,VALID,99.2971,VALID,0.0169808,VALID,19.1285,VALID,85,VALID,1.65805,
2001-01-28, 01:48:00,VALID,916.257,VALID,0,VALID,99.3009,VALID,0.0509425,VALID,19.122,VALID,93,VALID,2.28906,
2001-01-28, 01:49:00,VALID,916.24,VALID,0,VALID,99.3047,VALID,0.0679233,VALID,19.1183,VALID,82,VALID,2.16071,
2001-01-28, 01:50:00,VALID,916.236,VALID,0,VALID,99.3161,VALID,0,VALID,19.1061,VALID,77,VALID,1.37324,
2001-01-28, 01:51:00,VALID,916.216,VALID,0,VALID,99.3072,VALID,0.0509425,VALID,19.0964,VALID,87,VALID,1.80781,
2001-01-28, 01:52:00,VALID,916.174,VALID,0,VALID,99.325,VALID,0,VALID,19.0877,VALID,69,VALID,1.49434,
2001-01-28, 01:53:00,VALID,916.161,VALID,0,VALID,99.3174,VALID,-0.0169808,VALID,19.0646,VALID,84,VALID,0.829603,
2001-01-28, 01:54:00,VALID,916.157,VALID,0,VALID,99.3377,VALID,0,VALID,19.0882,VALID,97,VALID,1.18859,
2001-01-28, 01:55:00,VALID,916.129,VALID,0,VALID,99.3466,VALID,0,VALID,19.1202,VALID,88,VALID,0.923437,
2001-01-28, 01:56:00,VALID,916.105,VALID,0,VALID,99.3517,VALID,-0.0169808,VALID,19.1295,VALID,98,VALID,0.227407,
2001-01-28, 01:57:00,VALID,916.082,VALID,0,VALID,99.3619,VALID,-0.0169808,VALID,19.1525,VALID,109,VALID,0.245777,
2001-01-28, 01:58:00,VALID,916.063,VALID,0,VALID,99.3543,VALID,0,VALID,19.1488,VALID,99,VALID,0.766827,
2001-01-28, 01:59:00,VALID,916.036,VALID,0,VALID,99.3543,VALID,0,VALID,19.1523,VALID,90,VALID,1.43029,
2001-01-28, 02:00:00,VALID,916.009,VALID,0,VALID,99.3505,VALID,-0.0339617,VALID,19.1265,VALID,74,VALID,1.81652,
2001-01-28, 02:01:00,VALID,916,VALID,0,VALID,99.353,VALID,-0.0339617,VALID,19.1039,VALID,30,VALID,0.77097,
2001-01-28, 02:02:00,VALID,915.988,VALID,0,VALID,99.3594,VALID,-0.0169808,VALID,19.1076,VALID,71,VALID,0.558093,
2001-01-28, 02:03:00,VALID,915.996,VALID,0,VALID,99.3759,VALID,-0.0509425,VALID,19.1108,VALID,60,VALID,0.949805,
2001-01-28, 02:04:00,VALID,915.988,VALID,0,VALID,99.3619,VALID,-0.0509425,VALID,19.0877,VALID,60,VALID,0.970861,
2001-01-28, 02:05:00,VALID,915.953,VALID,0,VALID,99.3708,VALID,0,VALID,19.1106,VALID,117,VALID,1.01584,
2001-01-28, 02:06:00,VALID,915.951,VALID,0,VALID,99.3912,VALID,-0.0169808,VALID,19.1399,VALID,97,VALID,1.13433,
2001-01-28, 02:07:00,VALID,915.94,VALID,0,VALID,99.3899,VALID,0.0509425,VALID,19.1548,VALID,95,VALID,0.795703,
2001-01-28, 02:08:00,VALID,915.945,VALID,0,VALID,99.3912,VALID,0.101885,VALID,19.1543,VALID,45,VALID,0.449414,
2001-01-28, 02:09:00,VALID,915.948,VALID,0,VALID,99.381,VALID,0.118866,VALID,19.1317,VALID,18,VALID,0.177684,
2001-01-28, 02:10:00,VALID,915.95,VALID,0,VALID,99.3835,VALID,0.101885,VALID,19.1186,VALID,58,VALID,0.263421,
2001-01-28, 02:11:00,VALID,915.964,VALID,0,VALID,99.3886,VALID,0.0679233,VALID,19.1223,VALID,118,VALID,0.170759,
2001-01-28, 02:12:00,VALID,915.957,VALID,0,VALID,99.3937,VALID,0.0849042,VALID,19.1317,VALID,107,VALID,0,
2001-01-28, 02:13:00,VALID,915.945,VALID,0,VALID,99.3924,VALID,0.0849042,VALID,19.1352,VALID,66,VALID,0.856291,
2001-01-28, 02:14:00,VALID,915.917,VALID,0,VALID,99.3975,VALID,0.0849042,VALID,19.093,VALID,72,VALID,1.18072,
2001-01-28, 02:15:00,VALID,915.879,VALID,0,VALID,99.4001,VALID,0.0679233,VALID,19.0959,VALID,62,VALID,1.33138,
2001-01-28, 02:16:00,VALID,915.864,VALID,0,VALID,99.3937,VALID,0.0509425,VALID,19.0865,VALID,64,VALID,1.07552,
2001-01-28, 02:17:00,VALID,915.866,VALID,0,VALID,99.4051,VALID,0.0509425,VALID,19.0932,VALID,306,VALID,0.352482,
2001-01-28, 02:18:00,VALID,915.849,VALID,0,VALID,99.414,VALID,0.0509425,VALID,19.1193,VALID,96,VALID,1.41575,
2001-01-28, 02:19:00,VALID,915.84,VALID,0,VALID,99.428,VALID,0.0509425,VALID,19.1543,VALID,92,VALID,0.949519,
2001-01-28, 02:20:00,VALID,915.822,VALID,0,VALID,99.428,VALID,0.0849042,VALID,19.1543,VALID,92,VALID,1.3724,
2001-01-28, 02:21:00,VALID,915.835,VALID,0,VALID,99.4128,VALID,0.101885,VALID,19.1543,VALID,86,VALID,1.32772,
2001-01-28, 02:22:00,VALID,915.832,VALID,0,VALID,99.4229,VALID,0.0339617,VALID,19.1483,VALID,98,VALID,1.47701,
2001-01-28, 02:23:00,VALID,915.854,VALID,0,VALID,99.4344,VALID,0.0169808,VALID,19.1739,VALID,99,VALID,1.01738,
2001-01-28, 02:24:00,VALID,915.86,VALID,0,VALID,99.4446,VALID,0.0509425,VALID,19.1834,VALID,69,VALID,1.01797,
2001-01-28, 02:25:00,VALID,915.86,VALID,0,VALID,99.4331,VALID,0.0339617,VALID,19.1354,VALID,56,VALID,1.14727,
2001-01-28, 02:26:00,VALID,915.863,VALID,0,VALID,99.4408,VALID,0.0339617,VALID,19.1349,VALID,64,VALID,0.599873,
2001-01-28, 02:27:00,VALID,915.866,VALID,0,VALID,99.4458,VALID,0.0679233,VALID,19.1349,VALID,74,VALID,0.67513,
2001-01-28, 02:28:00,VALID,915.853,VALID,0,VALID,99.456,VALID,0.0679233,VALID,19.1546,VALID,100,VALID,0.528795,
2001-01-28, 02:29:00,VALID,915.842,VALID,0,VALID,99.4395,VALID,0.0679233,VALID,19.1543,VALID,121,VALID,0.820946,
2001-01-28, 02:30:00,VALID,915.829,VALID,0,VALID,99.4471,VALID,0.0849042,VALID,19.1635,VALID,79,VALID,0.957137,
2001-01-28, 02:31:00,VALID,915.817,VALID,0,VALID,99.4522,VALID,0.101885,VALID,19.1548,VALID,95,VALID,1.14363,
2001-01-28, 02:32:00,VALID,915.808,VALID,0,VALID,99.4598,VALID,0.0679233,VALID,19.1551,VALID,89,VALID,0.876402,
2001-01-28, 02:33:00,VALID,915.793,VALID,0,VALID,99.4624,VALID,0.0339617,VALID,19.1772,VALID,101,VALID,0.782589,
2001-01-28, 02:34:00,VALID,915.781,VALID,0,VALID,99.4624,VALID,0.0679233,VALID,19.1866,VALID,94,VALID,0.479646,
2001-01-28, 02:35:00,VALID,915.759,VALID,0,VALID,99.4573,VALID,0.0339617,VALID,19.1901,VALID,90,VALID,0.548077,
2001-01-28, 02:36:00,VALID,915.728,VALID,0,VALID,99.4662,VALID,0.0339617,VALID,19.1573,VALID,87,VALID,0.7375,
2001-01-28, 02:37:00,VALID,915.731,VALID,0,VALID,99.4624,VALID,0,VALID,19.162,VALID,73,VALID,0.829814,
2001-01-28, 02:38:00,VALID,915.729,VALID,0,VALID,99.4636,VALID,-0.0169808,VALID,19.1853,VALID,111,VALID,0.907517,
2001-01-28, 02:39:00,VALID,915.715,VALID,0,VALID,99.4789,VALID,-0.0339617,VALID,19.198,VALID,102,VALID,1.18446,
2001-01-28, 02:40:00,VALID,915.701,VALID,0.2,VALID,99.4776,VALID,-0.0169808,VALID,19.2139,VALID,104,VALID,1.08809,
2001-01-28, 02:41:00,VALID,915.701,VALID,0,VALID,99.4827,VALID,-0.0509425,VALID,19.2206,VALID,101,VALID,1.21699,
2001-01-28, 02:42:00,VALID,915.698,VALID,0,VALID,99.4814,VALID,-0.0339617,VALID,19.2171,VALID,100,VALID,1.37961,
2001-01-28, 02:43:00,VALID,915.683,VALID,0,VALID,99.4878,VALID,-0.0509425,VALID,19.2204,VALID,106,VALID,0.801683,
2001-01-28, 02:44:00,VALID,915.686,VALID,0,VALID,99.4827,VALID,-0.0169808,VALID,19.2169,VALID,94,VALID,0.504018,
2001-01-28, 02:45:00,VALID,915.689,VALID,0,VALID,99.4853,VALID,-0.0169808,VALID,19.2134,VALID,111,VALID,0.23778,
2001-01-28, 02:46:00,VALID,915.677,VALID,0,VALID,99.4789,VALID,0,VALID,19.204,VALID,119,VALID,0.0789474,
2001-01-28, 02:47:00,VALID,915.666,VALID,0,VALID,99.4802,VALID,-0.0339617,VALID,19.1948,VALID,243,VALID,0.202303,
2001-01-28, 02:48:00,VALID,915.653,VALID,0,VALID,99.4725,VALID,-0.0339617,VALID,19.1848,VALID,206,VALID,0.486111,
2001-01-28, 02:49:00,VALID,915.643,VALID,0,VALID,99.4802,VALID,0,VALID,19.1719,VALID,102,VALID,1.36545,
2001-01-28, 02:50:00,VALID,915.635,VALID,0,VALID,99.4929,VALID,-0.0169808,VALID,19.1722,VALID,94,VALID,1.2932,
2001-01-28, 02:51:00,VALID,915.631,VALID,0,VALID,99.4547,VALID,-0.0509425,VALID,19.0909,VALID,90,VALID,1.75211,
2001-01-28, 02:52:00,VALID,915.632,VALID,0,VALID,99.4585,VALID,-0.0849042,VALID,19.0598,VALID,94,VALID,1.46895,
2001-01-28, 02:53:00,VALID,915.623,VALID,0,VALID,99.4687,VALID,-0.101885,VALID,19.043,VALID,96,VALID,1.82232,
2001-01-28, 02:54:00,VALID,915.627,VALID,0,VALID,99.47,VALID,-0.101885,VALID,19.0335,VALID,108,VALID,0.86258,
2001-01-28, 02:55:00,VALID,915.62,VALID,0,VALID,99.4636,VALID,-0.0679233,VALID,19.0208,VALID,93,VALID,1.57366,
2001-01-28, 02:56:00,VALID,915.616,VALID,0,VALID,99.4725,VALID,-0.101885,VALID,18.9982,VALID,94,VALID,1.18125,
2001-01-28, 02:57:00,VALID,915.612,VALID,0,VALID,99.4725,VALID,-0.0849042,VALID,18.9751,VALID,93,VALID,2.18379,
2001-01-28, 02:58:00,VALID,915.604,VALID,0,VALID,99.4713,VALID,-0.101885,VALID,18.9438,VALID,94,VALID,1.79512,
2001-01-28, 02:59:00,VALID,915.595,VALID,0,VALID,99.4675,VALID,-0.101885,VALID,18.9235,VALID,86,VALID,1.72023,
2001-01-28, 03:00:00,VALID,915.594,VALID,0,VALID,99.4662,VALID,-0.0849042,VALID,18.9235,VALID,73,VALID,1.12912,
2001-01-28, 03:01:00,VALID,915.595,VALID,0,VALID,99.4827,VALID,-0.101885,VALID,18.9112,VALID,89,VALID,1.04263,
2001-01-28, 03:02:00,VALID,915.594,VALID,0,VALID,99.4903,VALID,-0.101885,VALID,18.9078,VALID,84,VALID,0.631123,
2001-01-28, 03:03:00,VALID,915.586,VALID,0,VALID,99.4827,VALID,-0.0679233,VALID,18.8944,VALID,91,VALID,1.4772,
2001-01-28, 03:04:00,VALID,915.578,VALID,0,VALID,99.498,VALID,-0.0849042,VALID,18.9006,VALID,93,VALID,1.53646,
2001-01-28, 03:05:00,VALID,915.567,VALID,0,VALID,99.4967,VALID,-0.101885,VALID,18.8879,VALID,73,VALID,1.86839,
2001-01-28, 03:06:00,VALID,915.564,VALID,0,VALID,99.4827,VALID,-0.0509425,VALID,18.8457,VALID,81,VALID,2.11071,
2001-01-28, 03:07:00,VALID,915.568,VALID,0,VALID,99.5005,VALID,0.0339617,VALID,18.8385,VALID,76,VALID,1.40851,
2001-01-28, 03:08:00,VALID,915.547,VALID,0,VALID,99.5081,VALID,0.0169808,VALID,18.8452,VALID,92,VALID,1.60757,
2001-01-28, 03:09:00,VALID,915.536,VALID,0,VALID,99.5158,VALID,0,VALID,18.8316,VALID,65,VALID,1.10547,
2001-01-28, 03:10:00,VALID,915.507,VALID,0,VALID,99.5107,VALID,0,VALID,18.8258,VALID,96,VALID,1.88894,
2001-01-28, 03:11:00,VALID,915.503,VALID,0,VALID,99.5209,VALID,0.0169808,VALID,18.8254,VALID,94,VALID,1.63556,
2001-01-28, 03:12:00,VALID,915.51,VALID,0,VALID,99.5107,VALID,0.0169808,VALID,18.8058,VALID,94,VALID,1.98763,
2001-01-28, 03:13:00,VALID,915.486,VALID,0,VALID,99.5298,VALID,0.0339617,VALID,18.806,VALID,97,VALID,1.58359,
2001-01-28, 03:14:00,VALID,915.486,VALID,0,VALID,99.5132,VALID,0,VALID,18.803,VALID,90,VALID,2.0791,
2001-01-28, 03:15:00,VALID,915.474,VALID,0,VALID,99.5145,VALID,-0.0849042,VALID,18.8042,VALID,78,VALID,1.58293,
2001-01-28, 03:16:00,VALID,915.469,VALID,0,VALID,99.5298,VALID,-0.101885,VALID,18.7721,VALID,69,VALID,1.07893,
2001-01-28, 03:17:00,VALID,915.464,VALID,0,VALID,99.5209,VALID,-0.0679233,VALID,18.7585,VALID,91,VALID,1.24866,
2001-01-28, 03:18:00,VALID,915.452,VALID,0,VALID,99.5247,VALID,-0.101885,VALID,18.7523,VALID,86,VALID,1.4395,
2001-01-28, 03:19:00,VALID,915.439,VALID,0,VALID,99.5323,VALID,-0.0679233,VALID,18.762,VALID,84,VALID,1.57833,
2001-01-28, 03:20:00,VALID,915.422,VALID,0,VALID,99.5259,VALID,-0.0509425,VALID,18.7587,VALID,90,VALID,1.37788,
2001-01-28, 03:21:00,VALID,915.419,VALID,0,VALID,99.531,VALID,-0.101885,VALID,18.7594,VALID,73,VALID,1.45573,
2001-01-28, 03:22:00,VALID,915.408,VALID,0,VALID,99.5374,VALID,0.0169808,VALID,18.7352,VALID,84,VALID,1.5497,
2001-01-28, 03:23:00,VALID,915.403,VALID,0,VALID,99.5336,VALID,0,VALID,18.7386,VALID,72,VALID,1.39798,
2001-01-28, 03:24:00,VALID,915.405,VALID,0,VALID,99.5323,VALID,0.0169808,VALID,18.7128,VALID,74,VALID,1.31208,
2001-01-28, 03:25:00,VALID,915.402,VALID,0,VALID,99.5412,VALID,0.0509425,VALID,18.7059,VALID,91,VALID,1.07752,
2001-01-28, 03:26:00,VALID,915.396,VALID,0,VALID,99.5514,VALID,0.0509425,VALID,18.7223,VALID,91,VALID,1.05549,
2001-01-28, 03:27:00,VALID,915.391,VALID,0,VALID,99.5488,VALID,0.0169808,VALID,18.7026,VALID,79,VALID,1.15645,
2001-01-28, 03:28:00,VALID,915.389,VALID,0,VALID,99.5399,VALID,0.0169808,VALID,18.6763,VALID,87,VALID,1.56763,
2001-01-28, 03:29:00,VALID,915.389,VALID,0,VALID,99.5399,VALID,0,VALID,18.69,VALID,79,VALID,1.26973,
2001-01-28, 03:30:00,VALID,915.402,VALID,0,VALID,99.5476,VALID,0.0339617,VALID,18.6837,VALID,89,VALID,1.4918,
2001-01-28, 03:31:00,VALID,915.411,VALID,0,VALID,99.5437,VALID,0,VALID,18.6805,VALID,73,VALID,1.57187,
2001-01-28, 03:32:00,VALID,915.436,VALID,0,VALID,99.5374,VALID,0.0169808,VALID,18.6614,VALID,60,VALID,1.39696,
2001-01-28, 03:33:00,VALID,915.437,VALID,0,VALID,99.5527,VALID,0.0169808,VALID,18.6512,VALID,68,VALID,1.44727,
2001-01-28, 03:34:00,VALID,915.437,VALID,0,VALID,99.5539,VALID,0.0169808,VALID,18.6482,VALID,71,VALID,1.21183,